Theta_e
280 280 280 280 280 281 282 282 282 282 283 283 283 284 282 281 279 278 278 279 280 283 287 283 288 289 290 290 292 291 291 291 291 293 293 293 293 293 294 296 297 298 299 299 299 300 300 301 302 303 303 304 305 307 308 309 312 314 315 315 315 316 316 314 313 314 314 313 313 313 312 312 312 311
279 279 279 279 279 280 280 280 281 281 282 282 282 282 283 283 280 279 277 278 282 281 284 285 285 289 288 289 289 289 289 290 291 292 292 292 292 293 294 295 296 297 298 298 298 299 300 300 301 302 303 304 304 306 307 308 311 313 314 316 316 316 315 314 313 313 314 313 313 313 312 312 311 311
278 277 277 278 278 279 279 279 280 280 281 281 281 281 282 282 281 280 279 277 281 284 281 284 286 285 286 286 286 288 289 289 289 290 291 292 291 291 292 292 294 295 296 296 297 298 299 300 300 301 301 302 304 305 305 307 309 312 313 315 315 315 315 313 313 312 312 313 313 312 312 311 311 311
277 277 276 277 277 278 278 278 279 279 280 280 280 280 281 281 281 281 279 278 277 283 282 283 284 285 285 286 285 285 286 288 288 290 290 291 289 290 291 291 292 293 294 295 296 297 298 299 299 300 300 301 303 304 305 306 307 309 312 313 314 313 313 312 311 311 311 312 313 312 312 311 310 310
276 276 276 276 277 278 277 278 278 278 279 279 279 280 280 279 280 280 279 277 277 280 283 283 283 284 285 284 285 284 285 286 287 288 289 290 290 290 290 291 290 291 292 294 295 296 297 298 298 299 299 300 301 302 304 305 305 307 309 311 313 313 312 312 311 310 310 310 312 313 312 311 310 310
276 276 276 276 277 277 277 277 277 278 278 278 278 278 278 278 278 280 278 277 277 276 280 281 283 282 284 282 285 284 284 284 286 286 286 287 288 288 289 290 290 291 291 292 294 295 296 296 297 298 298 299 300 301 302 303 305 306 307 308 309 311 311 311 311 310 309 309 310 312 312 311 310 309
276 275 276 276 276 277 276 276 277 277 277 277 277 277 278 277 277 278 278 277 276 276 277 280 280 281 282 282 282 284 284 285 285 285 285 285 287 288 288 289 290 290 291 293 294 295 295 296 296 297 297 298 299 300 301 302 304 305 305 307 306 307 308 309 309 309 308 309 309 310 311 310 310 309
275 275 275 275 276 276 275 275 276 276 277 276 276 276 277 277 277 277 278 278 276 276 275 277 279 280 280 281 283 283 284 284 284 284 285 286 286 286 287 288 288 289 291 293 293 294 295 295 296 296 297 298 298 299 300 301 302 303 303 304 305 305 306 307 307 307 308 308 309 309 311 310 310 309
275 275 275 275 275 275 274 274 275 275 275 275 276 275 276 276 276 277 277 277 277 276 275 276 279 280 280 281 282 282 281 282 283 284 284 284 285 285 286 287 288 289 291 292 292 292 293 294 295 295 296 297 297 298 299 299 301 301 302 302 302 304 305 305 305 304 305 305 306 308 309 310 309 309
275 274 274 274 274 274 273 273 274 274 274 274 274 274 275 276 276 276 276 277 277 276 276 276 276 278 278 278 280 281 282 281 281 281 283 284 284 284 285 286 286 287 288 288 289 289 290 292 293 294 295 296 296 297 298 298 299 299 300 300 300 301 302 303 304 304 303 303 304 306 308 309 310 309
274 274 274 274 274 273 274 273 273 274 274 274 274 275 275 276 275 275 276 276 276 276 275 275 276 276 278 278 277 280 281 281 281 280 280 280 283 284 284 283 286 287 287 288 289 289 290 290 290 291 292 293 294 296 296 297 298 298 298 299 300 300 301 302 302 302 302 302 302 303 305 307 309 309
274 274 274 273 274 274 274 274 274 275 274 275 274 275 275 275 275 275 275 275 275 274 274 274 274 275 275 277 278 280 280 279 279 281 280 279 280 281 283 284 283 285 286 286 287 288 289 289 290 291 291 292 293 293 294 295 295 295 297 298 299 300 300 301 301 301 301 301 301 302 302 303 305 308
273 273 273 273 273 274 275 276 275 275 275 273 272 273 274 273 273 273 273 273 273 273 273 273 275 275 275 276 276 276 277 277 277 279 280 279 280 281 281 282 284 285 284 285 286 286 288 287 287 288 288 289 290 291 292 292 293 294 297 298 300 300 300 300 300 300 300 300 300 300 301 302 303 305
272 272 273 273 273 274 274 274 274 274 275 275 274 273 273 273 272 271 271 271 271 271 271 271 272 272 273 274 275 275 276 278 280 279 279 278 279 280 280 281 283 285 285 284 283 285 287 287 286 287 286 288 288 288 289 290 292 292 294 296 298 300 300 299 299 299 299 299 300 300 300 300 301 301
272 272 272 272 272 272 272 271 272 273 274 274 275 275 275 275 273 271 270 270 271 271 270 271 271 271 271 272 273 273 274 275 275 275 277 278 278 278 278 277 281 285 284 283 282 283 287 287 285 286 286 287 288 288 288 289 290 291 293 294 296 298 299 299 298 298 299 298 299 299 299 300 300 300
271 270 270 270 270 270 270 270 271 271 272 273 274 274 274 274 275 276 273 271 270 271 270 270 271 271 271 271 273 273 273 273 274 274 275 274 273 273 274 275 276 282 285 282 282 281 285 286 285 285 286 287 288 288 288 289 290 291 292 293 294 296 298 299 298 298 298 298 298 299 299 299 299 299
270 269 269 269 270 270 271 270 270 269 269 271 272 273 273 273 274 274 275 275 273 272 271 270 270 271 271 271 272 273 273 274 273 273 273 273 273 273 273 273 275 278 283 282 281 280 283 285 284 284 286 287 288 288 289 290 290 291 292 292 293 295 296 298 298 298 298 298 298 298 298 299 298 298
269 269 269 269 269 269 269 269 269 269 269 269 270 270 270 270 272 274 274 275 275 274 272 271 269 271 272 271 272 274 275 274 273 273 273 274 274 274 274 276 277 278 280 278 278 277 280 283 283 282 284 287 287 287 288 289 290 291 292 292 293 294 295 296 297 298 298 298 297 297 298 298 298 298
269 269 269 269 269 269 269 269 270 270 270 270 270 270 270 270 271 272 272 272 272 272 273 272 272 273 273 274 274 274 275 275 275 276 276 276 276 277 278 278 278 279 281 280 279 274 277 280 281 282 283 285 286 287 288 289 290 291 291 292 293 293 294 295 297 297 297 298 297 297 297 298 298 298
269 269 269 269 269 269 269 271 273 273 272 271 270 270 270 271 271 272 274 276 276 275 275 275 275 275 275 277 277 277 277 277 277 277 277 277 276 275 274 273 276 276 280 282 280 277 278 281 280 281 283 284 284 285 286 287 289 290 291 292 292 293 294 295 296 297 297 297 297 297 297 297 297 297
269 269 269 270 269 269 269 272 274 275 275 271 271 271 271 271 272 272 274 276 278 279 279 279 280 280 280 280 280 281 281 279 278 276 274 273 274 272 271 271 272 273 276 278 279 279 278 281 281 281 283 283 283 284 285 286 288 290 291 291 292 292 293 294 295 296 297 297 297 297 297 297 297 296
270 270 271 271 270 270 270 273 275 276 275 273 273 272 272 272 272 272 274 274 275 278 279 279 279 280 280 280 280 281 280 280 279 275 272 273 274 271 271 270 271 272 274 275 279 276 275 279 281 280 282 283 283 284 285 285 286 288 289 291 292 292 293 293 294 295 295 296 297 297 297 297 296 296
269 269 271 272 272 272 273 276 277 277 276 273 273 273 272 271 271 272 274 273 273 273 274 274 274 275 276 276 276 277 279 279 278 276 275 275 273 271 271 271 271 270 271 275 278 274 275 276 278 279 278 278 282 284 284 285 285 286 287 287 288 291 292 292 293 294 295 295 296 296 297 296 295 294
269 270 270 271 274 275 276 276 277 277 278 275 274 274 272 272 271 274 274 274 274 273 273 274 274 274 275 275 275 275 276 276 276 276 276 275 274 272 272 271 271 269 270 275 277 273 274 275 275 280 280 278 277 281 284 284 285 285 286 286 286 288 290 291 292 293 294 294 295 295 296 296 295 294
269 270 271 271 273 275 276 277 277 277 278 278 275 274 273 274 275 276 274 275 276 275 275 274 275 275 275 275 275 275 275 275 276 276 277 276 276 274 273 272 271 271 273 276 278 275 273 275 275 277 277 279 279 279 281 282 284 284 285 285 285 286 287 288 290 291 293 294 294 295 295 296 296 295
270 270 271 271 273 275 276 277 278 278 278 278 276 275 278 279 279 276 276 275 275 274 274 273 273 273 272 272 273 273 273 274 275 275 275 276 276 276 275 274 272 271 271 276 279 276 274 273 273 273 275 276 277 279 278 280 281 282 284 285 285 285 287 287 289 290 291 292 292 293 293 295 296 296
270 272 272 272 275 276 277 277 278 278 278 278 276 278 279 279 279 277 275 274 273 273 272 271 270 271 271 270 271 271 271 272 273 273 274 274 274 275 275 276 275 274 275 276 277 276 275 273 274 273 272 274 274 275 277 277 279 282 281 283 284 285 286 286 287 288 290 290 291 292 293 294 295 295
271 271 271 272 276 277 278 278 278 278 277 275 277 278 278 278 277 274 273 272 271 270 269 269 269 269 269 269 269 270 271 271 272 272 273 273 274 274 274 274 275 275 275 275 275 275 275 274 274 276 276 275 274 273 273 277 280 281 280 282 282 283 284 285 286 287 288 290 290 290 290 289 291 292
272 274 276 277 277 277 277 277 276 274 274 275 276 276 276 275 272 270 270 269 269 268 267 267 268 268 269 270 270 271 272 272 272 272 272 273 273 274 274 274 274 275 275 275 275 275 275 275 274 275 275 274 273 273 274 274 276 278 281 280 279 281 282 284 285 285 287 288 288 289 288 289 289 290
276 276 276 277 276 274 273 271 270 270 270 273 273 273 272 269 268 268 268 267 267 266 267 267 267 268 269 270 271 272 272 271 271 271 271 271 272 272 272 272 272 274 274 275 275 275 275 274 274 274 273 274 275 274 275 275 275 277 279 279 280 282 282 283 283 284 285 286 287 288 289 290 290 289
272 273 273 272 273 272 272 271 270 269 268 266 266 267 267 267 267 267 267 267 267 267 267 267 268 269 270 271 271 270 271 270 271 272 271 271 271 272 272 271 271 271 273 274 275 275 275 275 275 275 272 273 274 273 274 275 275 276 278 280 280 278 280 281 282 283 284 285 286 287 288 289 289 289
272 270 270 269 267 266 265 264 263 263 264 264 265 265 266 266 267 268 268 268 267 267 267 267 268 269 269 269 269 270 270 271 271 272 272 271 271 272 271 270 269 271 271 273 274 275 275 275 275 275 275 274 273 274 275 275 275 276 276 279 280 281 282 280 281 282 284 284 284 284 286 287 287 288
269 267 265 263 262 261 261 261 261 261 262 263 264 263 263 264 264 264 264 264 265 266 267 267 267 267 268 268 269 270 270 270 271 272 272 272 271 271 271 270 270 270 270 270 272 273 275 275 276 276 276 276 276 276 275 274 275 277 276 278 279 279 281 282 282 282 283 282 282 283 284 286 287 288
263 262 260 259 259 259 259 259 260 260 261 261 261 262 263 263 262 263 264 264 264 265 265 266 266 266 267 268 269 269 270 271 272 273 273 272 272 271 270 270 270 271 271 271 272 273 274 275 275 276 277 277 278 277 277 275 275 276 277 278 279 278 280 282 282 283 283 282 282 281 282 284 286 287
259 258 258 258 258 259 259 259 259 260 260 260 260 260 261 262 262 263 263 263 264 264 265 265 266 267 267 268 269 269 270 271 272 272 273 273 272 272 271 270 270 271 271 272 272 273 274 274 274 274 274 275 275 277 280 279 276 277 278 278 280 279 279 281 282 282 282 282 282 281 282 283 284 286
257 257 257 257 257 258 258 259 259 259 259 259 260 260 260 261 262 262 262 263 264 264 265 265 266 267 267 268 269 270 270 271 271 272 272 272 272 271 271 271 271 271 272 272 272 274 274 274 274 273 272 272 272 272 274 281 281 279 277 277 279 279 280 281 281 282 281 281 282 282 280 281 282 284
256 257 257 257 257 258 258 258 258 259 259 259 259 260 260 260 261 262 263 264 264 265 265 266 266 267 267 268 269 269 270 270 270 271 271 272 272 272 271 271 271 272 272 273 274 274 275 275 275 274 273 272 271 271 274 279 281 283 280 279 279 280 280 280 280 280 281 281 281 282 281 282 282 284
256 256 256 257 257 257 258 258 258 258 259 259 259 260 260 261 262 262 264 264 264 265 265 266 266 266 267 267 268 268 269 270 270 270 271 271 271 271 271 271 271 272 272 273 275 276 277 277 277 276 275 273 272 272 273 276 277 280 283 282 280 280 280 279 279 279 280 281 281 282 283 282 282 284
256 256 256 256 257 257 257 257 258 258 258 259 259 260 260 261 262 263 264 264 265 265 265 265 265 266 266 267 268 268 267 268 268 270 271 271 272 271 272 272 272 273 274 274 275 276 277 277 277 277 277 275 274 275 276 276 276 280 282 284 282 280 279 279 279 279 280 280 281 283 282 281 283 283
256 257 256 257 257 257 257 258 258 258 259 259 260 260 261 262 262 263 263 264 265 265 265 265 265 266 266 267 267 267 267 267 268 269 270 271 272 272 273 273 273 273 273 274 274 276 276 277 278 278 278 278 279 280 280 279 276 276 278 282 284 281 280 280 279 279 279 280 281 280 278 279 279 280
256 256 256 257 257 257 257 258 258 259 259 260 260 262 262 262 263 263 264 265 265 265 264 265 265 265 265 266 266 266 266 267 268 268 269 270 271 272 273 274 274 274 274 274 275 275 276 278 279 281 280 280 278 277 276 275 274 276 276 278 282 283 282 282 280 279 279 280 280 279 278 276 276 276
256 256 256 256 256 257 258 258 259 259 259 260 261 262 262 263 263 265 265 265 265 265 265 265 265 265 265 265 266 266 266 266 267 267 269 269 270 271 272 273 273 274 274 274 274 276 278 277 276 278 278 278 277 276 274 275 275 275 275 275 276 281 283 282 282 282 281 280 278 278 275 273 273 272
255 256 256 256 257 257 258 258 259 259 260 260 261 262 262 263 263 264 264 264 265 265 265 265 265 265 265 265 266 266 266 266 267 267 268 269 269 269 270 272 273 274 275 275 276 276 275 275 276 276 277 277 277 277 275 276 276 275 274 274 275 277 279 282 282 282 282 282 282 281 278 276 273 271
255 255 256 256 257 257 257 258 259 259 260 260 261 262 262 263 263 263 264 264 265 265 265 265 265 265 265 265 265 265 266 266 267 267 267 268 269 269 270 271 272 273 274 275 275 274 273 273 275 276 275 275 276 275 275 275 275 274 274 274 274 275 276 278 280 281 281 281 281 280 280 279 279 279
254 254 255 256 256 257 257 258 258 259 259 260 261 261 262 263 263 263 264 264 265 265 265 265 265 265 265 265 265 265 265 267 267 267 267 268 268 269 270 271 271 272 273 274 273 272 272 272 273 274 274 274 274 275 274 274 273 272 272 272 272 273 274 274 273 273 273 273 276 278 278 278 278 278
Wind_Speed
5 5 6 5 6 6 5 5 5 5 5 5 5 4 5 6 8 9 8 10 10 6 1 10 1 2 3 4 4 5 5 8 10 8 9 9 8 10 15 17 18 18 19 19 19 19 20 20 20 21 22 23 22 21 20 20 21 20 20 20 20 18 14 12 13 13 15 16 17 17 19 19 17 16
4 5 5 5 5 6 6 6 6 5 6 5 5 5 5 5 8 9 11 13 6 10 11 7 9 2 7 6 7 8 10 11 13 9 9 9 10 11 16 17 18 19 19 20 19 20 20 21 21 20 21 22 23 24 23 21 21 21 20 20 19 19 17 15 13 12 13 18 19 18 20 20 19 18
5 6 6 5 5 5 6 6 6 5 5 6 6 6 5 6 7 9 10 13 8 4 10 11 9 12 10 10 9 6 7 9 13 11 10 9 13 16 12 14 16 17 18 19 19 20 21 21 22 22 22 22 23 24 23 22 22 21 20 20 20 20 20 18 16 15 15 17 22 21 21 21 21 20
5 7 7 7 6 7 6 6 6 6 6 6 6 6 6 7 7 8 10 12 17 8 9 14 13 15 15 12 13 11 7 7 12 10 10 10 13 9 9 14 14 16 17 18 19 19 20 21 22 22 22 22 24 24 24 24 23 23 21 20 21 20 21 19 18 18 17 16 18 22 22 22 20 19
6 7 7 8 7 7 8 7 7 7 7 7 7 7 7 7 7 7 9 13 16 13 7 10 12 11 13 17 12 14 12 7 6 9 8 9 8 9 8 9 14 15 17 18 19 20 20 21 22 22 22 22 23 23 25 24 22 23 23 21 22 21 20 20 19 18 17 17 17 19 21 22 21 20
6 7 8 8 8 7 8 9 9 8 8 8 8 8 7 8 8 7 9 12 13 18 11 11 11 11 9 15 15 12 16 15 9 9 8 8 9 10 10 9 9 13 16 17 19 20 21 21 22 22 21 22 22 22 23 22 23 24 23 21 20 22 25 25 22 21 20 19 19 20 22 23 23 23
7 8 8 9 8 7 9 9 8 8 9 8 9 10 8 9 10 9 9 11 14 16 16 11 13 12 10 12 16 15 12 16 13 13 11 9 8 8 10 10 8 10 17 19 20 21 21 21 21 21 22 22 22 22 23 21 22 24 24 23 21 20 19 21 22 21 20 23 23 23 23 24 24 24
8 8 9 8 9 9 10 10 9 8 8 9 9 11 10 9 11 10 9 10 11 14 16 14 12 12 12 11 14 13 13 15 16 13 14 9 8 9 9 10 10 9 17 20 21 21 21 22 22 22 22 22 23 23 24 23 22 21 22 22 22 21 20 21 21 21 23 25 26 26 26 27 24 24
8 8 8 10 9 10 10 10 8 9 11 10 10 10 10 10 10 10 10 11 11 13 15 16 12 11 12 12 13 13 14 14 15 15 14 13 9 8 8 8 9 11 18 19 21 19 20 21 22 23 23 23 23 23 24 24 23 22 22 22 22 22 22 21 21 22 22 22 22 24 27 28 26 24
7 8 9 9 9 9 9 10 10 10 11 11 11 12 11 11 11 12 13 12 12 13 15 15 17 13 12 13 11 12 12 13 16 16 15 12 11 10 9 7 6 6 6 7 7 11 15 19 22 23 22 23 23 24 24 24 23 22 21 21 22 22 23 23 22 22 23 23 23 23 24 25 24 24
7 8 8 8 8 9 9 10 10 10 12 11 13 12 12 12 12 13 13 12 13 13 15 15 14 15 13 11 14 11 11 14 14 16 16 16 12 11 11 12 6 6 8 11 15 14 13 14 13 16 20 22 24 24 23 23 23 22 22 21 22 22 23 23 23 22 22 23 24 23 23 23 26 27
7 7 8 8 8 8 8 9 10 10 10 10 12 11 11 11 13 13 13 13 12 14 14 15 16 14 14 13 11 11 12 12 13 11 12 16 17 16 11 11 12 8 7 8 7 9 13 14 17 20 22 24 24 24 22 23 22 22 21 21 22 23 23 23 23 23 22 22 23 24 24 23 24 27
7 7 7 7 7 8 12 15 14 14 14 12 12 12 11 12 13 12 12 12 13 13 13 15 14 14 14 12 11 11 11 11 13 13 12 15 16 16 17 15 12 10 11 10 9 8 8 10 9 8 9 10 15 17 20 18 21 21 20 21 22 23 24 24 24 23 23 23 23 24 25 23 23 24
7 7 7 7 11 12 14 14 17 17 17 17 14 13 12 12 12 12 12 12 11 12 14 14 14 15 14 13 12 13 12 12 12 14 14 16 17 17 16 16 14 9 7 10 12 9 7 9 10 8 9 9 9 9 10 10 12 15 21 23 23 23 24 24 24 24 24 24 24 25 25 25 24 23
10 8 8 8 9 10 11 11 15 16 17 17 19 20 20 17 14 12 13 12 12 12 13 13 13 14 16 15 13 13 14 13 14 14 14 13 13 14 14 16 16 8 8 10 9 9 6 7 10 9 9 9 8 8 10 14 17 19 21 22 24 24 24 24 25 25 25 25 25 25 26 26 26 24
9 9 9 8 7 8 9 11 12 14 17 18 20 20 19 19 19 19 14 13 12 12 13 14 14 14 15 15 13 12 12 12 13 13 13 12 14 15 15 14 16 10 10 12 15 16 11 6 9 10 8 9 7 8 13 17 19 20 21 22 24 24 24 25 25 26 26 26 26 26 26 26 26 26
10 9 9 9 8 7 13 11 11 12 13 15 19 19 19 18 18 17 19 20 16 14 15 15 17 14 14 16 13 11 13 14 15 15 15 14 13 15 17 16 17 18 13 12 14 17 15 10 8 13 9 9 7 8 14 20 20 20 21 22 23 25 25 25 26 26 26 26 26 26 26 26 26 26
10 10 10 10 10 9 10 10 12 12 13 14 13 13 12 13 15 19 21 22 24 21 17 18 18 16 14 15 15 15 14 15 14 14 15 14 15 16 17 20 20 19 14 16 16 20 18 13 12 15 15 12 8 9 13 18 19 21 22 23 23 24 25 25 25 26 26 27 26 26 26 25 26 26
10 11 10 12 13 12 12 10 13 14 15 14 13 13 13 14 15 15 15 15 15 14 15 16 17 18 17 17 18 16 14 14 14 13 14 15 16 17 19 18 19 19 16 17 15 20 20 14 14 16 15 12 9 7 11 17 20 21 23 23 24 24 25 26 25 26 26 27 27 27 26 26 26 26
10 10 10 11 12 13 13 17 21 19 17 15 14 15 14 14 14 14 16 22 22 19 17 17 17 17 18 20 17 16 15 14 13 12 12 11 10 14 15 17 13 13 11 12 14 15 19 16 14 16 16 14 15 10 9 12 21 22 23 24 24 25 25 26 27 26 27 26 27 27 27 27 26 25
11 10 10 11 12 13 14 19 23 24 23 16 15 15 15 13 11 11 11 20 27 28 29 30 30 31 31 30 30 29 29 21 16 13 14 15 11 13 14 14 12 13 12 10 11 13 18 15 12 14 16 14 16 14 11 9 16 22 23 24 25 25 25 26 27 27 27 28 27 27 28 27 27 25
10 11 16 16 15 16 17 21 24 25 22 16 15 13 15 15 14 15 13 11 13 25 30 30 31 30 30 31 31 31 29 26 20 14 17 15 15 17 15 17 14 15 13 11 9 13 19 17 13 13 15 15 10 12 14 12 12 18 20 25 26 26 26 26 27 28 29 28 27 27 28 27 26 19
11 13 14 20 19 17 19 26 26 27 22 16 15 16 16 14 12 11 12 12 13 11 10 13 15 18 21 20 18 18 26 27 24 17 17 14 14 17 17 17 17 18 14 6 8 13 16 15 16 13 14 16 12 9 10 11 11 9 9 10 15 23 26 26 27 27 29 29 29 28 28 27 24 14
11 11 11 12 18 21 24 25 28 27 27 20 17 16 15 14 14 12 15 14 14 15 12 13 13 14 13 13 13 14 15 16 17 18 17 17 16 17 17 17 17 18 17 5 8 12 14 14 15 11 11 13 14 8 6 10 10 9 8 10 10 15 22 25 24 28 30 30 32 32 29 27 24 14
9 9 9 8 15 24 26 25 27 28 29 28 20 16 15 15 19 22 16 15 19 14 12 12 10 11 10 10 11 12 12 12 13 14 17 17 17 17 16 16 17 19 19 11 12 12 15 12 15 13 13 13 15 16 7 5 7 8 8 9 10 9 9 11 10 13 20 30 31 32 30 29 29 21
12 14 14 13 17 24 26 27 28 30 30 30 19 18 25 29 29 21 15 12 10 9 9 9 10 11 11 12 12 12 12 12 13 14 15 16 17 17 17 17 18 17 18 11 17 15 16 16 13 14 14 14 17 15 15 12 6 6 9 9 10 9 9 8 8 9 10 11 13 20 23 31 29 31
12 11 11 14 24 27 27 27 28 29 31 25 18 27 28 29 31 26 14 10 10 11 12 12 13 12 12 12 12 12 12 11 12 13 14 15 16 15 16 17 18 20 18 14 13 16 17 18 15 15 16 14 17 17 16 16 13 3 6 7 8 8 8 8 9 9 11 11 12 18 22 26 29 30
14 15 12 13 25 27 28 29 27 26 24 19 28 29 30 30 27 14 10 9 11 12 13 13 13 12 12 13 13 13 13 12 12 14 15 16 17 18 17 18 18 19 20 18 17 18 18 18 16 14 15 15 16 18 18 16 16 14 9 6 7 8 8 9 10 10 10 10 11 11 10 11 14 18
11 18 27 29 28 27 25 23 22 19 20 25 26 27 26 25 12 10 11 12 12 12 13 13 12 13 13 13 15 16 17 15 14 14 14 14 14 14 16 16 17 17 16 15 16 18 17 16 18 16 16 17 18 20 18 18 16 15 12 9 7 6 8 9 9 10 10 11 11 11 11 12 12 13
26 26 26 26 21 17 16 15 12 12 14 21 24 24 22 12 11 11 11 12 12 12 12 12 13 14 14 14 15 16 15 14 14 13 13 13 12 11 12 14 15 14 15 16 16 18 20 19 19 17 16 17 17 18 18 17 16 16 15 11 11 9 8 9 10 10 10 11 12 11 12 12 13 11
12 13 12 13 19 18 22 21 19 18 17 14 11 10 10 10 10 10 10 11 12 12 12 13 13 13 14 14 14 13 13 14 12 11 12 12 13 13 12 14 16 15 14 13 14 17 19 18 18 18 18 17 16 18 18 17 18 16 15 10 11 12 5 9 9 10 10 10 11 11 11 11 11 12
11 10 12 13 9 10 9 9 8 9 9 10 10 9 10 10 11 13 17 16 12 11 11 12 13 13 13 13 13 13 12 12 13 12 11 11 12 10 9 12 14 13 15 14 13 15 17 18 18 17 18 18 17 15 14 15 16 15 16 14 12 12 10 9 10 10 11 10 10 12 12 10 11 11
9 9 9 8 8 7 9 9 9 9 9 9 10 10 9 10 11 11 10 11 11 11 11 12 12 13 13 14 13 13 13 12 12 11 10 10 10 12 11 13 14 14 16 16 14 13 13 13 16 18 18 17 19 17 15 15 15 14 16 14 11 10 9 8 8 10 10 10 10 11 13 12 11 11
7 6 6 7 7 8 8 9 9 10 10 10 11 10 12 11 10 10 10 10 11 12 13 13 13 13 13 13 13 12 13 13 11 11 14 14 10 11 12 12 13 15 15 15 14 14 13 13 13 14 16 18 17 17 17 16 16 14 13 13 10 11 10 8 9 12 9 10 10 11 11 11 10 10
6 6 7 8 8 8 8 8 9 9 10 10 10 11 11 10 10 11 10 10 11 12 13 13 12 13 13 13 13 13 14 14 14 13 12 12 12 12 12 12 14 14 14 14 15 14 13 13 13 14 14 14 15 16 20 20 16 15 13 13 9 9 9 8 8 9 8 8 10 10 10 11 11 9
4 4 6 7 7 8 8 9 9 9 9 9 10 10 11 11 10 10 11 12 11 12 12 12 13 13 13 13 13 14 14 14 14 13 13 12 12 11 11 12 14 14 13 14 15 14 12 12 13 13 14 13 13 14 14 23 26 16 14 13 10 9 9 8 10 7 8 9 10 10 11 12 12 11
4 4 5 7 7 8 8 9 9 9 9 9 10 9 10 10 12 12 12 12 11 12 13 13 12 13 13 14 14 14 14 14 14 14 14 13 12 13 12 12 13 13 14 14 14 14 13 13 13 12 12 12 13 14 14 6 22 28 16 15 11 7 9 8 9 9 9 10 10 10 11 11 11 11
4 5 7 7 7 8 8 8 8 9 9 9 9 10 9 10 11 11 10 11 12 11 12 12 13 13 13 13 14 14 14 14 14 14 14 13 13 12 12 12 12 12 13 13 13 13 13 13 10 10 10 12 12 12 12 6 1 14 25 16 13 10 11 10 9 10 10 9 9 8 9 9 9 6
4 7 7 8 8 8 8 9 8 9 9 10 9 9 10 10 10 10 11 11 11 11 12 13 13 13 14 14 13 13 14 14 15 14 14 13 13 13 12 12 12 12 13 13 13 13 12 11 9 9 10 11 13 13 11 8 9 7 14 26 15 11 11 9 10 9 9 8 8 8 4 1 4 4
3 5 7 8 8 8 8 8 8 8 9 9 9 9 9 10 10 10 11 10 11 13 13 13 13 14 13 13 13 13 14 15 15 14 14 14 14 14 14 12 12 12 13 14 14 14 13 13 11 8 11 13 13 8 7 5 1 2 1 12 21 13 10 9 9 10 7 7 7 8 8 5 8 2
5 6 6 7 8 8 8 8 8 8 9 9 9 10 9 9 9 9 10 12 13 12 12 13 12 13 13 12 13 13 14 14 14 14 14 14 15 15 17 16 13 12 12 13 14 14 13 12 12 16 15 9 1 6 3 2 4 3 4 4 13 18 16 15 11 6 8 9 10 8 8 9 8 5
6 7 7 7 7 8 8 8 9 9 8 8 9 9 9 9 8 16 14 14 10 10 10 12 12 12 12 12 12 13 13 14 14 14 14 14 14 15 16 14 13 13 12 13 13 13 11 7 4 3 3 5 7 7 7 7 5 3 1 0 1 7 14 16 14 12 10 8 7 7 4 3 3 4
6 7 8 8 7 7 7 8 8 8 9 9 9 9 10 10 10 11 11 11 10 11 11 12 13 12 12 12 12 12 13 13 13 13 14 14 14 14 14 13 13 13 12 11 10 9 9 8 3 2 4 5 7 7 8 8 5 3 2 1 2 1 2 5 11 10 6 8 11 9 10 9 8 7
5 7 7 7 8 7 7 7 7 8 9 9 9 10 10 10 11 12 11 11 12 12 12 11 13 13 13 13 12 12 12 12 12 13 14 14 14 13 13 13 14 13 12 10 9 8 5 4 4 2 3 5 4 6 7 5 5 3 3 3 2 3 4 2 1 3 4 2 4 5 7 6 5 6
4 6 7 7 7 7 7 7 8 8 8 9 10 10 11 10 10 11 11 11 12 13 11 11 12 13 13 12 12 12 12 14 13 12 13 13 13 12 12 12 12 12 12 10 7 6 3 3 3 3 2 1 1 1 0 1 1 3 3 4 4 3 3 3 5 5 5 4 7 7 8 6 7 9
Wind_Direction
336 336 336 331 324 326 327 322 318 315 310 300 292 286 284 291 288 300 294 294 303 315 -0 314 265 235 295 318 335 320 302 298 296 294 293 289 285 278 282 282 281 280 278 276 274 271 270 270 271 270 269 268 266 264 262 263 266 260 250 248 254 254 245 233 234 239 234 231 232 237 241 237 234 236
328 324 324 322 322 319 322 320 314 311 307 301 298 290 280 270 272 280 287 286 272 286 298 273 289 336 311 304 295 299 295 295 293 284 283 285 286 282 284 285 284 282 281 279 275 272 270 269 267 268 267 266 264 263 263 262 261 259 248 242 242 244 244 239 228 237 247 237 230 230 238 238 237 233
337 332 326 321 315 316 313 308 305 301 300 302 299 292 282 270 263 274 280 286 270 204 293 291 290 301 300 300 292 281 275 284 286 281 278 277 282 288 285 278 280 281 279 277 274 272 271 269 268 267 266 266 264 261 260 260 261 258 251 241 235 233 233 234 230 230 240 241 236 232 232 236 238 237
335 330 330 329 327 324 319 314 313 311 306 299 297 291 287 281 270 269 276 270 277 271 270 283 291 296 302 302 298 293 281 276 269 273 274 275 281 279 278 283 279 278 276 274 273 272 270 267 267 265 264 264 264 263 259 258 257 257 252 242 235 231 230 229 227 228 235 244 237 235 233 229 231 237
330 327 321 319 318 318 317 318 320 316 314 312 301 295 289 282 276 271 272 275 283 284 251 262 281 290 303 299 295 299 300 279 265 265 268 275 276 275 272 275 278 273 273 272 270 268 266 266 264 263 262 261 259 260 260 257 255 255 253 246 238 233 230 228 225 224 230 239 245 235 230 226 224 228
323 320 316 314 316 316 310 311 312 313 315 314 308 304 302 295 292 280 279 279 281 288 290 281 278 281 276 285 290 293 302 301 295 271 265 261 261 273 273 272 273 265 269 267 269 266 264 263 263 262 261 260 259 255 255 255 253 253 252 248 243 238 236 232 228 228 229 234 241 238 224 218 220 229
316 313 311 310 313 316 313 309 307 308 306 306 303 300 300 296 291 288 279 282 284 287 289 286 285 283 277 271 287 293 291 290 293 292 279 265 265 255 265 268 265 267 269 267 265 267 267 265 263 260 259 257 258 257 253 251 251 250 250 249 246 241 236 236 235 231 229 232 235 238 225 214 218 225
311 309 309 308 313 314 309 307 308 305 303 304 300 298 296 293 291 289 284 275 278 287 290 288 283 287 285 276 278 283 284 287 291 286 288 276 254 258 254 259 265 258 265 270 267 266 266 267 265 262 259 256 255 255 254 251 247 245 244 245 246 243 239 235 234 235 236 235 234 234 232 224 219 217
301 303 302 305 309 310 305 304 305 305 304 301 298 294 294 291 289 286 282 280 276 279 280 286 286 286 281 280 278 280 285 288 285 285 279 284 282 268 246 250 256 264 267 267 271 269 265 264 264 264 262 258 256 254 253 252 250 245 242 240 240 243 243 239 236 235 235 235 234 234 233 231 225 214
298 298 297 299 301 301 299 298 300 300 298 298 291 290 289 288 287 285 283 280 279 276 278 283 291 286 285 289 279 282 282 286 290 289 288 286 279 279 276 240 230 241 246 264 261 263 263 261 261 263 263 262 259 256 253 252 251 249 243 237 236 237 240 242 241 237 235 234 234 233 232 230 212 209
292 291 293 294 296 293 292 293 295 299 299 296 294 293 293 291 289 288 286 285 283 280 282 283 279 286 286 282 288 289 285 282 279 287 296 296 289 278 276 282 256 218 245 247 257 265 267 263 260 258 258 259 259 258 257 255 253 250 247 239 233 232 234 237 239 240 237 234 233 234 232 228 219 211
293 292 292 290 288 287 288 291 295 299 301 302 297 297 296 295 294 292 291 290 287 287 286 282 287 286 289 290 284 288 288 284 281 278 286 289 295 294 288 280 285 273 250 250 243 249 261 263 260 260 259 258 257 257 257 255 254 252 250 246 236 230 229 231 234 237 238 236 234 233 233 230 226 225
292 292 290 286 285 289 293 293 294 295 297 299 297 295 296 297 296 294 294 294 294 291 288 287 287 288 289 290 297 298 294 291 292 293 289 286 284 288 293 289 273 267 279 274 253 242 243 257 252 249 253 249 252 256 254 255 254 251 251 248 243 235 229 227 229 231 235 237 235 233 232 230 224 217
294 290 290 290 292 295 297 298 297 295 293 290 287 291 296 295 294 293 292 290 290 290 289 288 293 293 291 297 302 302 303 304 304 300 294 286 288 288 286 286 283 281 252 264 272 249 222 246 258 254 257 258 249 254 252 245 246 247 247 246 245 239 233 228 226 226 229 233 235 233 232 230 225 221
306 302 296 295 295 294 294 292 291 294 294 293 292 291 290 288 287 291 290 288 289 288 284 287 288 288 290 293 298 297 301 301 306 306 308 315 317 310 306 296 296 287 280 277 271 270 228 226 251 251 248 253 252 242 247 246 248 248 247 246 244 242 236 230 227 224 225 228 232 233 231 230 227 222
301 302 302 297 294 288 287 295 297 295 291 292 293 292 290 288 285 283 285 292 293 290 289 287 285 289 290 294 295 295 297 299 298 296 299 308 303 295 295 296 291 302 308 299 291 285 279 231 237 250 239 248 244 237 248 248 249 249 248 247 245 243 239 232 227 225 225 225 228 231 231 230 228 224
297 295 296 296 290 291 292 295 290 290 288 287 290 290 289 288 285 284 284 284 283 288 286 287 287 287 294 292 292 294 296 297 293 293 287 287 286 289 290 284 285 283 295 294 292 289 286 277 242 257 241 235 236 240 242 248 248 248 249 248 246 243 241 238 231 227 225 224 225 228 230 229 228 225
287 289 292 295 294 294 295 290 289 288 292 292 291 288 286 286 282 282 281 279 278 275 277 279 278 280 277 279 284 284 281 281 279 279 276 273 278 276 271 279 279 284 284 282 292 286 280 278 275 267 271 262 241 235 243 245 245 245 246 246 246 244 242 239 235 230 226 224 224 225 227 228 226 225
284 284 285 290 294 295 296 290 289 290 290 289 285 277 268 266 264 264 264 267 264 263 268 269 268 270 269 269 271 273 272 266 268 269 279 289 291 288 284 278 276 279 278 277 273 272 278 269 270 271 271 268 255 229 243 240 242 243 243 244 244 244 242 240 236 232 228 226 224 224 225 226 226 224
283 280 279 284 287 289 290 291 290 289 289 285 279 275 269 264 260 257 255 259 265 266 266 266 268 269 270 266 267 273 278 280 284 284 286 288 292 293 289 285 289 283 291 278 262 262 271 270 264 268 268 268 269 257 242 231 240 240 242 242 241 242 241 240 238 235 231 227 224 223 223 224 224 224
281 278 277 279 283 286 286 287 289 290 290 284 275 272 271 268 261 258 245 260 269 271 270 272 275 277 278 278 280 283 286 286 286 289 288 288 291 285 286 285 288 284 287 288 297 289 278 274 274 275 274 271 272 267 254 233 233 239 241 241 240 240 240 239 238 236 234 231 226 223 222 222 223 222
282 280 282 282 280 279 281 285 288 290 292 289 285 278 272 266 265 269 265 256 256 264 269 271 273 275 277 279 280 281 283 285 285 282 280 281 282 277 276 283 286 287 280 282 287 281 273 284 283 285 279 275 254 250 258 246 243 236 241 241 240 239 237 238 237 236 235 233 230 226 223 222 220 219
282 283 273 271 277 283 285 290 292 293 294 290 287 283 279 272 259 263 261 261 268 262 256 257 257 261 262 264 265 266 267 270 274 272 271 273 268 271 273 276 285 285 282 278 257 263 273 275 270 266 276 275 267 228 238 241 240 227 219 236 241 240 239 237 236 236 235 235 234 230 224 220 215 214
278 272 274 265 281 289 291 291 292 292 292 290 283 281 279 277 274 277 272 267 269 271 261 258 252 254 256 255 255 253 255 254 250 257 261 262 262 264 267 267 267 270 275 275 305 287 286 290 293 294 289 288 284 277 237 242 230 231 215 226 235 234 235 237 239 238 237 235 234 235 229 222 212 209
270 283 287 273 289 295 294 293 292 290 287 281 281 281 280 273 277 284 278 276 272 271 270 271 270 271 267 266 265 262 262 257 253 250 256 258 260 263 267 269 268 268 270 269 270 271 275 281 281 285 276 275 279 284 270 245 233 218 210 221 233 235 228 234 232 235 234 235 235 234 234 227 216 210
297 295 290 284 288 295 295 292 289 287 286 290 293 288 288 292 299 300 298 298 299 295 292 292 289 288 284 281 278 273 270 268 265 266 267 265 264 263 263 265 268 270 271 269 264 266 271 272 270 279 277 276 275 274 281 273 263 223 207 208 222 230 228 226 227 234 232 230 233 234 234 231 223 215
282 284 287 291 291 288 289 292 295 297 301 305 303 303 304 303 302 303 305 304 303 302 300 297 293 289 287 285 283 279 278 275 273 273 270 270 268 265 264 263 263 267 274 276 267 264 266 268 266 262 267 270 276 280 274 271 263 221 239 222 214 222 230 223 225 228 231 229 230 232 237 238 233 224
296 293 283 279 290 300 303 301 301 304 310 307 305 302 300 299 301 305 312 317 309 303 298 292 289 288 285 284 284 284 282 281 277 276 272 270 268 267 267 265 263 264 268 270 267 265 266 270 272 265 265 265 264 264 268 266 268 264 250 208 223 214 217 217 224 224 227 228 230 226 227 230 234 231
286 294 299 301 301 301 309 319 321 316 307 304 303 304 305 310 317 316 311 307 305 298 293 290 289 286 284 282 284 284 283 278 275 270 267 258 255 255 256 255 256 260 262 263 265 265 263 262 262 261 258 259 261 262 264 266 266 269 266 257 229 207 211 218 223 226 223 224 224 223 220 221 225 224
300 299 300 306 316 327 326 321 317 313 312 312 311 309 312 315 310 307 304 300 298 292 290 289 286 286 287 285 285 283 283 279 277 271 267 268 260 255 254 259 258 248 248 252 254 258 259 260 261 265 265 261 258 261 259 264 261 261 262 247 246 231 210 204 213 219 218 220 221 221 223 223 222 219
290 301 321 328 322 324 323 320 315 314 314 312 309 307 304 302 302 301 296 294 295 295 293 293 289 290 289 288 287 286 284 278 267 256 257 259 261 262 257 261 265 269 257 248 246 248 254 255 255 253 254 254 254 253 259 263 268 264 260 249 238 236 193 201 211 216 219 224 228 224 227 224 225 222
325 331 329 331 333 326 326 325 320 312 309 306 307 308 311 309 308 309 308 304 295 289 288 286 289 289 292 292 291 289 283 278 278 272 260 260 267 258 254 264 265 263 267 266 255 245 245 250 251 251 248 251 254 254 253 252 253 257 260 256 243 237 220 199 203 213 208 213 223 229 227 222 220 220
333 335 332 328 331 333 323 321 316 311 311 315 315 311 311 313 312 309 306 306 305 305 303 299 299 297 295 293 291 288 283 277 272 265 261 260 257 266 255 255 261 266 274 273 265 258 249 243 240 244 248 249 249 249 250 253 251 249 253 251 240 235 233 216 189 199 193 206 222 226 229 224 222 218
345 343 329 322 321 322 322 316 317 318 318 318 316 312 313 311 310 309 310 307 307 306 303 300 298 295 295 293 292 288 282 276 267 265 271 272 256 254 254 252 255 266 268 266 266 263 259 253 248 244 243 244 244 240 241 245 251 252 248 249 235 231 219 209 209 213 194 191 202 220 226 232 222 218
345 330 324 320 318 315 312 309 308 312 312 310 310 310 309 306 307 309 305 303 304 305 301 299 296 294 295 294 294 295 294 291 288 288 280 273 263 255 255 261 269 269 267 267 266 262 256 254 253 252 249 248 246 240 227 230 245 243 248 245 238 224 222 210 208 201 197 192 199 210 219 224 222 212
327 313 314 313 312 309 308 307 307 307 306 304 303 305 308 308 307 310 309 309 304 304 304 304 303 301 299 298 297 297 298 298 296 290 288 282 274 264 258 256 263 266 265 264 266 267 261 253 251 246 246 245 246 250 250 218 218 232 231 239 224 211 213 206 211 207 192 195 197 204 218 223 227 220
311 303 310 308 304 306 304 307 307 303 303 303 305 304 302 302 305 305 300 301 302 309 307 305 303 303 303 302 300 300 299 300 298 293 286 283 278 274 265 263 261 262 266 263 261 263 262 258 252 238 235 238 240 248 250 225 213 213 221 227 226 205 206 199 196 204 199 194 197 200 211 221 226 223
307 315 312 305 302 301 300 299 302 301 302 303 300 299 294 293 294 292 295 302 306 301 307 310 309 307 305 303 304 304 306 303 301 296 291 285 280 274 269 263 262 258 258 260 263 264 266 266 251 237 223 230 238 239 250 231 225 216 212 215 225 215 206 210 202 196 191 193 194 199 208 222 225 218
303 307 307 302 300 302 302 302 300 299 300 302 301 298 299 296 295 301 306 303 299 303 314 314 310 308 307 307 307 309 307 305 301 298 297 294 288 279 271 269 269 270 273 271 271 272 273 273 259 244 227 228 233 235 231 229 220 210 204 209 214 207 199 198 202 192 186 182 196 204 212 353 26 356
292 296 290 292 290 298 294 297 296 300 300 297 299 295 294 298 300 300 299 301 312 320 317 313 311 310 308 308 308 306 304 300 298 298 299 299 295 289 275 263 262 265 268 268 273 277 275 273 265 243 240 234 236 244 251 250 7 15 227 210 206 200 196 191 195 187 191 185 171 184 203 209 220 215
315 304 292 289 291 293 291 294 296 297 297 295 294 295 297 294 298 297 304 317 318 313 310 313 312 311 307 307 306 306 303 300 298 298 299 300 300 300 295 287 274 269 268 273 278 278 276 273 267 263 253 254 216 80 111 155 210 199 197 206 201 196 189 189 198 190 187 183 185 180 187 198 202 171
302 295 295 293 291 293 294 295 302 300 296 297 297 300 301 304 300 321 321 313 303 296 300 313 314 312 308 308 306 305 301 301 301 300 301 302 303 301 299 297 291 287 281 279 279 279 285 296 286 237 211 189 195 202 212 212 210 195 198 75 320 225 206 199 196 191 190 188 185 178 153 77 94 166
298 296 297 298 297 294 297 298 299 299 299 303 303 306 306 311 312 316 315 313 308 312 312 314 320 318 314 313 309 306 303 300 300 301 302 303 302 300 301 300 299 295 288 281 278 283 287 293 274 223 200 200 210 208 216 209 203 167 156 153 149 131 255 241 220 220 217 200 196 191 179 172 159 195
294 296 293 298 300 299 298 295 296 300 303 304 306 308 308 310 314 319 318 314 317 316 315 313 319 319 317 313 309 305 303 302 303 305 304 303 301 300 299 300 301 299 293 283 282 276 286 294 294 260 211 220 214 215 220 196 196 175 155 147 137 150 176 160 170 174 109 95 173 120 100 84 50 42
287 287 290 293 295 297 297 301 303 307 308 310 311 310 309 307 311 316 315 317 320 318 312 314 315 316 316 314 312 309 308 307 306 303 303 303 302 303 302 302 303 305 302 298 287 278 286 301 309 309 285 304 314 232 336 190 141 125 135 141 139 135 124 126 132 111 98 71 43 73 107 102 87 93